SCP
0 0 0 0 0 0 0 0 0 0 0 0 0 0 0 0 0 0 0 0 0 0 0 0 0 0 0 0 0 0 0 0 0 0 0 0 0 0 0 0 0 0 0
0 0 0 0 0 0 0 0 0 0 0 0 0 0 0 0 0 0 0 0 0 0 0 0 0 0 0 0 0 0 0 0 0 0 0 0 0 0 0 0 0 0 0
0 0 0 0 0 0 0 0 0 0 0 0 0 0 0 0 0 0 0 0 0 0 0 0 0 0 0 0 0 0 0 0 0 0 0 0 0 0 0 0 0 0 0
0 0 0 0 0 0 0 0 0 0 0 0 0 0 0 0 0 0 0 0 0 0 0 0 0 0 0 0 0 0 0 0 0 0 0 0 0 0 0 0 0 0 0
0 0 0 0 0 0 0 0 0 0 0 0 0 0 0 0 0 0 0 0 0 0 0 0 0 0 0 0 0 0 0 0 0 0 0 0 0 0 0 0 0 0 0
0 0 0 0 0 0 0 0 0 0 0 0 0 0 0 0 0 0 0 0 0 0 0 0 0 0 0 0 0 0 0 0 0 0 0 0 0 0 0 0 0 0 0
0 0 0 0 0 0 0 0 0 0 0 0 0 0 0 0 0 0 0 0 0 0 0 0 0 0 0 0 0 0 0 0 0 0 0 0 0 0 0 0 0 0 0
0 0 0 0 0 0 0 0 0 0 0 0 0 0 0 0 0 0 0 0 0 0 0 0 0 0 0 0 0 0 0 0 0 0 0 0 0 0 0 0 0 0 0
0 0 0 0 0 0 0 0 0 0 0 0 0 0 0 0 0 0 0 0 0 0 0 0 0 0 0 0 0 0 0 0 0 0 0 0 0 0 0 0 0 0 0
0 0 0 0 0 0 0 0 0 0 0 0 0 0 0 0 0 0 0 0 0 0 0 0 0 0 0 0 0 0 0 0 0 0 0 0 0 0 0 0 0 0 0
0 0 0 0 0 0 0 0 0 0 0 0 0 0 0 0 0 0 0 0 0 0 0 0 0 0 0 0 0 0 0 0 0 0 0 0 0 0 0 0 0 0 0
0 0 0 0 0 0 0 0 0 0 0 0 0 0 0 0 0 0 0 0 0 0 0 0 0 0 0 0 0 0 0 0 0 0 0 0 0 0 0 0 0 0 0
0 0 0 0 0 0 0 0 0 0 0 0 0 0 0 0 0 0 0 0 0 0 0 0 0 0 0 0 0 0 0 0 0 0 0 0 0 0 0 0 0 0 0
0 0 0 0 0 0 0 0 0 0 0 0 0 0 0 0 0 0 0 0 0 0 0 0 0 0 0 0 0 0 0 0 0 0 0 0 0 0 0 0 0 0 0
0 0 0 0 0 0 0 0 0 0 0 0 0 0 0 0 0 0 0 0 0 0 0 0 0 0 0 0 0 0 0 0 0 0 0 0 0 0 0 0 0 0 0
0 0 0 0 0 0 0 0 0 0 0 0 0 0 0 0 0 0 0 0 0 0 0 0 0 0 0 0 0 0 0 0 0 0 0 0 0 0 0 0 0 0 0
0 0 0 0 0 0 0 0 0 0 0 0 0 0 0 0 0 0 0 0 0 0 0 0 0 0 0 0 0 0 0 0 0 0 0 0 0 0 0 0 0 0 0
0 0 0 0 0 0 0 0 0 0 0 0 0 0 0 0 0 0 0 0 0 0 0 0 0 0 0 0 0 0 0 0 0 0 0 0 0 0 0 0 0 0 0
0 0 0 0 0 0 0 0 0 0 0 0 0 0 0 0 0 0 0 0 0 0 0 0 0 0 0 0 0 0 0 0 0 0 0 0 0 0 0 0 0 0 0
0 0 0 0 0 0 0 0 0 0 0 0 0 0 0 0 0 0 0 0 0 0 0 0 0 0 0 0 0 0 0 0 0 0 0 0 0 0 0 0 0 0 0
0 0 0 0 0 0 0 0 0 0 0 0 0 0 0 0 0 0 0 0 0 0 0 0 0 0 0 0 0 0 0 0 0 0 0 0 0 0 0 0 0 0 0
0 0 0 0 0 0 0 0 0 0 0 0 0 0 0 0 0 0 0 0 0 0 0 0 0 0 0 0 0 0 0 0 0 0 0 0 0 0 0 0 0 0 0
0 0 0 0 0 0 0 0 0 0 0 0 0 0 0 0 0 0 0 0 0 0 0 0 0 0 0 0 0 0 0 0 0 0 0 0 0 0 0 0 0 0 0
0 0 0 0 0 0 0 0 0 0 0 0 0 0 0 0 0 0 0 0 0 0 0 0 0 0 0 0 0 0 0 0 0 0 0 0 0 0 0 0 0 0 0
0 0 0 0 0 0 0 0 0 0 0 0 0 0 0 0 0 0 0 0 0 0 0 0 0 0 0 0 0 0 0 0 0 0 0 0 0 0 0 0 0 0 0
0 0 0 0 0 0 0 0 0 0 0 0 0 0 0 0 0 0 0 0 0 0 0 0 0 0 0 0 0 0 0 0 0 0 0 0 0 0 0 0 0 0 0
Wind_Speed
11 12 12 12 13 13 13 14 14 12 12 13 13 13 14 14 14 14 14 12 14 13 12 13 13 11 9 8 7 7 7 6 5 3 2 4 7 7 7 5 5 5 4
9 9 10 11 11 12 14 14 13 13 12 13 12 13 14 14 14 15 16 15 15 16 14 14 14 10 12 9 8 9 8 6 6 6 4 4 5 8 7 6 5 4 3
6 7 8 8 9 11 11 10 10 11 11 11 12 14 14 14 14 15 15 15 16 15 14 15 14 12 13 9 9 9 7 6 4 6 5 3 3 5 5 4 4 3 4
5 5 7 7 8 8 7 7 8 9 10 10 11 12 12 13 13 14 14 14 14 13 13 13 13 14 15 13 11 10 8 7 5 6 5 4 3 4 5 5 4 4 3
4 5 6 5 4 4 5 5 5 6 7 8 8 9 9 9 10 11 11 12 12 12 11 11 11 13 14 12 10 10 11 8 7 6 6 5 5 7 8 6 5 3 3
5 5 3 2 2 3 3 3 3 4 4 5 6 7 7 7 9 13 11 10 10 10 10 9 9 10 12 14 14 15 15 13 12 9 7 8 9 7 6 6 6 5 4
4 4 2 2 2 2 2 2 3 3 3 4 4 5 6 6 8 10 12 9 8 9 9 7 6 6 8 8 10 12 12 13 14 11 10 9 10 11 11 9 7 6 4
3 2 2 2 2 1 1 2 2 2 2 2 3 3 3 4 5 8 9 8 6 6 6 7 7 7 7 8 7 7 6 6 8 6 6 6 6 9 10 9 7 5 3
2 2 2 2 2 1 1 2 1 1 1 1 1 2 2 3 4 6 6 3 3 4 3 4 5 6 10 12 9 8 6 4 5 6 6 7 11 14 12 8 8 5 3
2 2 2 2 2 2 2 1 0 0 1 0 1 1 1 2 3 4 5 2 3 2 2 2 5 7 10 14 9 9 9 7 7 7 7 8 8 11 15 9 9 6 4
2 2 2 2 2 1 1 1 1 1 1 1 1 1 1 2 3 4 5 2 3 3 3 3 3 9 12 14 10 7 8 8 8 7 6 5 5 5 6 5 5 6 5
3 3 2 2 1 1 2 2 2 1 1 1 1 1 1 1 2 3 4 4 3 3 3 2 4 9 12 12 8 8 12 10 6 6 6 6 6 6 5 5 5 3 2
4 3 3 3 2 2 2 2 2 1 1 1 0 1 1 1 2 3 2 2 3 2 2 4 5 8 9 8 9 12 10 7 7 7 7 7 5 5 5 4 4 3 2
4 3 3 3 3 3 2 2 2 1 1 1 0 1 1 1 1 1 1 0 2 2 2 3 6 7 6 5 6 7 5 6 6 6 5 4 4 5 5 5 5 5 4
5 4 3 3 3 3 3 3 2 2 1 1 0 0 1 2 2 2 1 1 1 2 3 2 2 3 3 3 4 4 4 5 5 5 5 5 6 6 6 5 5 5 6
5 4 3 2 2 2 3 3 7 5 6 6 4 2 1 2 3 2 3 2 3 6 3 3 3 4 4 5 5 5 5 6 6 5 6 6 7 7 7 6 5 7 7
4 4 3 3 3 2 2 2 2 4 7 9 9 8 5 5 4 3 2 2 3 6 2 2 3 3 4 4 4 5 5 5 5 6 6 6 6 6 6 7 7 7 7
4 4 3 3 3 2 2 2 2 2 2 3 6 9 9 7 5 4 1 1 1 2 1 2 2 3 3 3 4 4 4 4 5 6 6 6 7 7 7 7 8 9 8
4 3 3 3 3 3 3 3 2 3 2 2 3 5 8 8 7 5 3 1 0 1 1 1 1 2 2 3 4 4 4 5 5 6 6 7 6 7 7 8 8 10 9
4 5 4 3 3 3 3 3 3 3 3 3 3 3 3 4 3 3 3 2 1 1 1 1 1 2 2 3 3 3 4 5 5 6 6 6 6 7 8 9 8 8 8
4 4 5 4 4 3 3 3 3 3 3 3 3 4 6 3 3 3 3 3 2 2 2 2 2 2 2 2 2 3 4 4 4 5 5 5 6 6 7 7 7 8 7
3 4 4 4 3 3 3 3 3 3 3 3 3 4 8 4 3 3 3 3 3 3 3 2 2 2 2 2 2 3 3 4 4 4 4 4 4 5 5 6 6 6 7
4 4 4 4 3 4 4 3 3 3 3 3 3 3 3 3 3 3 3 3 3 3 3 2 2 2 3 3 2 3 3 4 3 3 4 5 5 5 5 6 7 7 7
4 4 4 3 3 3 3 3 2 2 2 2 2 2 2 2 2 3 3 3 3 3 3 3 3 4 5 4 3 3 3 4 4 3 4 5 5 5 5 5 6 7 6
4 3 3 3 2 2 2 2 2 2 2 2 2 2 2 2 2 3 3 3 3 3 4 3 3 3 5 6 5 5 7 8 6 4 4 4 5 5 5 5 5 5 6
3 3 2 2 1 1 1 1 1 2 2 2 2 2 2 3 3 3 3 3 3 3 4 3 4 5 6 5 6 8 8 9 8 7 4 4 5 5 5 4 6 5 6
Wind_Direction
212 214 215 217 217 217 220 222 222 220 216 216 215 215 216 217 215 216 221 217 220 223 218 219 221 212 211 209 204 200 201 187 187 161 143 156 167 177 176 173 181 184 196
213 214 218 220 218 219 223 225 222 221 218 217 215 216 217 217 215 216 220 219 220 222 220 218 220 211 213 207 202 203 201 189 170 168 158 161 179 179 172 174 180 186 196
209 212 218 219 219 223 226 225 220 220 220 217 215 218 219 218 217 217 219 220 221 222 218 217 216 207 210 206 202 202 197 185 164 154 155 151 147 166 162 167 173 186 205
202 209 220 223 224 227 228 225 222 219 219 219 219 221 220 218 218 218 219 221 222 222 218 217 214 209 209 203 201 197 184 176 161 149 145 148 146 151 157 169 182 191 201
199 213 225 225 226 230 233 232 228 223 223 222 221 223 222 220 219 217 218 220 220 221 219 218 215 211 209 201 197 191 181 177 168 165 158 153 164 168 186 176 181 171 200
202 222 227 223 227 237 246 247 239 233 229 223 223 223 225 224 222 215 212 217 218 218 219 217 212 207 208 204 203 194 186 180 181 178 179 181 185 179 164 164 160 163 206
202 215 211 208 224 242 258 256 252 249 239 233 232 226 231 236 228 220 215 215 217 219 217 213 211 207 199 199 199 193 197 198 189 181 184 188 179 177 166 166 176 177 186
198 208 195 186 215 239 255 263 271 280 269 257 253 245 243 250 239 230 223 223 227 221 211 205 205 201 197 188 181 183 190 197 194 188 191 182 169 165 167 165 160 134 94
197 204 191 177 194 212 239 262 272 273 277 281 294 269 259 270 252 235 218 217 226 229 216 201 197 198 195 183 177 178 179 186 180 155 150 151 158 159 152 136 142 151 182
201 188 164 161 177 199 218 226 243 250 280 334 324 318 284 284 278 247 215 201 213 212 198 199 205 200 191 185 182 180 185 175 148 140 140 145 152 163 166 166 163 164 160
136 125 125 134 149 162 153 128 117 104 90 72 31 7 353 318 301 269 224 202 203 196 198 202 207 202 198 196 191 189 184 156 150 149 144 143 147 160 170 169 174 171 170
111 112 108 101 101 114 124 117 111 117 114 87 49 359 356 345 314 284 245 222 197 193 203 195 198 199 201 198 191 178 164 149 147 155 161 172 178 182 180 174 174 175 164
109 107 101 96 86 89 110 113 100 97 99 87 50 322 326 340 330 320 289 240 196 175 175 178 186 195 195 192 186 172 160 159 162 175 187 192 187 174 158 153 155 153 146
113 107 100 100 88 73 73 84 93 95 92 76 4 315 321 336 338 347 354 63 149 128 125 153 174 183 181 164 166 172 172 175 179 189 192 175 157 164 176 174 177 173 188
108 100 93 88 94 83 70 60 71 60 64 80 68 341 325 319 312 288 248 189 159 156 136 133 153 159 170 171 171 176 177 179 188 189 183 179 180 185 188 181 179 180 197
107 99 92 88 81 79 79 58 51 55 50 48 43 34 355 323 322 301 273 244 198 169 151 172 183 185 190 190 191 193 196 200 199 195 195 194 194 195 193 187 189 197 210
97 97 92 88 87 83 81 83 62 35 44 44 34 26 15 356 343 321 287 225 187 172 173 182 194 198 200 199 203 205 208 207 202 203 205 204 204 202 198 197 199 206 215
81 78 80 80 79 78 75 72 71 65 35 10 9 16 15 8 2 355 351 134 166 180 191 196 204 206 208 212 215 218 217 208 209 213 213 212 210 208 208 208 207 210 213
73 68 66 68 65 64 63 64 63 61 53 26 8 6 8 8 13 20 47 54 127 218 228 226 225 222 224 223 223 221 219 217 215 215 220 220 216 215 220 219 216 214 212
61 60 64 68 66 61 56 57 55 52 46 34 22 355 352 17 24 15 20 21 17 356 333 286 261 248 243 238 233 227 229 230 226 225 226 224 221 220 226 225 221 217 216
63 61 61 66 63 60 58 55 54 55 46 31 5 357 18 36 23 10 7 9 3 349 334 317 304 293 280 267 252 244 241 242 238 235 234 230 225 226 227 227 226 223 221
64 65 60 61 59 57 54 49 50 49 42 30 5 1 17 28 17 10 6 2 354 349 344 335 324 317 309 299 290 275 261 256 251 245 243 239 235 234 230 227 226 223 220
58 66 65 58 56 56 55 45 44 43 34 22 8 6 10 12 5 359 351 344 344 344 344 343 335 328 331 324 314 299 283 276 272 266 254 243 236 233 230 230 227 223 221
52 59 62 57 51 50 48 39 32 30 24 14 6 0 357 354 348 342 338 334 335 334 334 335 328 321 320 317 309 302 293 293 288 270 259 255 245 235 231 231 230 228 226
48 52 54 52 47 40 32 22 12 2 353 348 342 334 330 330 327 324 323 324 326 323 323 322 318 317 315 311 305 298 295 294 284 268 254 248 247 240 233 233 231 227 225
42 42 41 38 31 17 3 343 330 323 316 312 310 306 305 304 302 302 305 308 311 308 306 304 303 305 304 302 298 298 294 288 279 264 245 238 238 237 231 232 228 226 223